Lexington Weather

Lexington, Massachusetts, USA

45°F
10/26/2020 5:22am 
  • Lexington Conditions: Overcast
  • Temperature: 45.3°F / 7.4°CWarmer 0.2°F than last hour.
  • Dew Point: 40.1°FIncreased 0.7°Fsince last hour.
  • Relative Humidity: 82%Increased 2.0% since last hour.
  • Wind: Wind from WNW WNW Calm, 10-min avg: 1 mph, gust: 3 mph
  • Barometer: 30.28 in Steady
  • Visibility: 10 miles
  • Rain Today: 0.00 in
  •   

Regional Weather Roundup
for Boston / Norton, MA

        
000
ASUS41 KBOX 251104
RWRBOX

REGIONAL WEATHER ROUNDUP
NATIONAL WEATHER SERVICE BOSTON/NORTON MA
700 AM EDT SUN OCT 25 2020

NOTE:  "FAIR" INDICATES FEW OR NO CLOUDS BELOW 12,000 FEET WITH NO 
SIGNIFICANT WEATHER AND/OR OBSTRUCTIONS TO VISIBILITY.

MAZALL-251200-
EASTERN MASSACHUSETTS
  
CITY           SKY/WX    TMP DP  RH WIND       PRES   REMARKS
BOSTON         CLOUDY    43  31  62 NW13      30.18R                  
BEVERLY        CLOUDY    43  33  68 N9        30.17R                  
LAWRENCE       CLOUDY    41  32  70 N5        30.20R                  
BEDFORD        MOCLDY    35  32  88 CALM      30.17R                  
BLUE HILL        N/A     40  31  70 N10       30.15R                  
NORWOOD        CLOUDY    43  32  65 CALM      30.18R                  
MARSHFIELD     MOCLDY    46  37  71 VRB7G13   30.16R                  
PLYMOUTH       MOCLDY    44  34  67 N7        30.16R                  
TAUNTON        CLOUDY    44  33  65 N5        30.17R                  
NEW BEDFORD    PTCLDY    42  33  70 N5        30.16R                  
$$

MAZALL-251200-
CAPE COD AND THE ISLANDS
  
CITY           SKY/WX    TMP DP  RH WIND       PRES   REMARKS
FALMOUTH       PTCLDY    43  36  75 N7        30.14R                  
HYANNIS        CLOUDY    51  40  65 N12G18    30.12R                  
CHATHAM        PTCLDY    50  39  66 VRB5      30.14R                  
PROVINCETOWN   CLOUDY    50  39  66 NE15      30.16R                  
NANTUCKET      PTCLDY    50  41  71 N15       30.12R                  
MARTHAS VNYRD  PTCLDY    46  37  71 N10       30.13R                  
$$
 
MAZALL-251200-
CENTRAL AND WESTERN MASSACHUSETTS
  
CITY           SKY/WX    TMP DP  RH WIND       PRES   REMARKS
WORCESTER      MOCLDY    38  29  70 N7        30.16R                  
FITCHBURG      PTCLDY    34  31  88 CALM      30.20R                  
ORANGE         PTCLDY    34  30  85 CALM      30.20R                  
SPRINGFIELD    MOCLDY    34  31  91 CALM      30.18R                  
WESTFIELD      MOCLDY    33  33 100 CALM      30.19R                  
NORTH ADAMS    PTCLDY    33  30  88 CALM      30.21R                  
PITTSFIELD     PTCLDY    34  28  79 W7        30.17R WCI  28          
$$
 
RIZALL-251200-
RHODE ISLAND
  
CITY           SKY/WX    TMP DP  RH WIND       PRES   REMARKS
PROVIDENCE     MOCLDY    43  33  68 N9        30.18R                  
NEWPORT        PTCLDY    43  33  68 N15       30.16R                  
BLOCK ISLAND   PTCLDY    44  33  65 N16G24    30.16R                  
SMITHFIELD     MOCLDY    40  33  76 N6        30.17R                  
WESTERLY       MOCLDY    42  32  67 N7        30.18R                  
$$
 
CTZALL-251200-
CONNECTICUT
  
CITY           SKY/WX    TMP DP  RH WIND       PRES   REMARKS
BRADLEY INTL   MOCLDY    40  33  76 CALM      30.19R                  
HARTFORD       MOCLDY    42  33  70 N5        30.19R                  
BRIDGEPORT     MOCLDY    43  35  73 NW3       30.20R                  
DANBURY        MOCLDY    40  31  70 NE6       30.18                   
GROTON         MOCLDY    43  32  65 N10       30.17R                  
NEW HAVEN      MOCLDY    41  38  89 CALM      30.19R                  
CHESTER        FAIR      41  34  75 N5        30.17R                  
MERIDEN        MOCLDY    41  35  79 CALM      30.19R                  
WILLIMANTIC    MOCLDY    39  32  76 N3        30.18R                  
OXFORD         MOCLDY    38  34  85 N7        30.18R                  
$$

MEZ002-015-021-024-NHZ003-005-008-011-012-014-VTZ005-008-251200-
NORTHERN NEW ENGLAND
  
CITY           SKY/WX    TMP DP  RH WIND       PRES   REMARKS
PORTLAND ME    PTCLDY    36  31  82 N3        30.18R                  
BANGOR ME      MOCLDY    39  29  67 NW9       30.16R                  
CONCORD NH     PTCLDY    31  27  85 CALM      30.19R                  
MANCHESTER NH  PTCLDY    41  29  62 N3        30.17R                  
NASHUA NH      PTCLDY    34  32  92 NW3       30.20R                  
PORTSMOUTH NH  PTCLDY    37  31  80 W3        30.17                   
JAFFREY NH     PTCLDY    36  28  73 CALM      30.17R                  
KEENE NH       PTCLDY    40  30  67 N14       30.20R                  
BURLINGTON VT  CLOUDY    39  28  64 N7        30.27R                  
MT. WASHINGTON NOT AVBL                                               
$$

NYZ052-076-251200-
EASTERN NEW YORK
  
CITY           SKY/WX    TMP DP  RH WIND       PRES   REMARKS
ALBANY         PTCLDY    32  29  88 NW3       30.25R                  
NEW YORK CITY  MOCLDY    47  32  56 NE12      30.19R                  
$$
 
ANZALL-251200-
MARINE OBSERVATIONS
  
STATION/POSITION TIME  TEMP    WIND        PRES    VSBY  WAVE
                       AIR SEA DIR/SP/G                  HT/PER
                 (UTC) (F)     (DEG/KT/KT) (MB)    (MI)  (FT/S)
BOSTON BUOY      1050   47 57  350/ 14/ 17 1020.3R         6/11
BUZZARDS BAY     1000          360/ 21/ 25 1021.1R
NANTUCKET SOUND  1050      62   20/ 16/ 21   N/A           2/ 4
MASS BAY-STELLWA 1004   49 57  340/ 14/ 17 1019.9R  1 7/8  7/11
ISLE OF SHOALS   1000   45     330/ 11/ 12 1020.7R
S OF BLOCK IS    1026      62                N/A           6/13
$$

......................KEY.........................
  SKY/WX - SKY CONDITION/PRESENT WEATHER
  TMP    - TEMPERATURE IN FAHRENHEIT
  DWPT   - DEWPOINT IN FAHRENHEIT
  RH     - RELATIVE HUMIDITY IN PERCENT
  WIND   - DIRECTION AND SPEED IN MPH
  PRES   - MEAN SEA LEVEL PRESSURE IN INCHES OF HG
  WCI    - WIND CHILL INDEX
  VSB    - VISIBILITY IN MILES
  HX     - HEAT INDEX
  TC     - TEMPERATURE IN CELSIUS
  VRB    - VARIABLE WIND DIRECTION
  N/A    - NOT AVAILABLE
  
      

Other recent Regional Weather Roundups

Mon Oct 26, 5:04am

Mon Oct 26, 4:04am

Mon Oct 26, 3:04am

Mon Oct 26, 2:04am

Mon Oct 26, 1:04am

Mon Oct 26, 12:04am

Sun Oct 25, 11:05pm

Sun Oct 25, 10:04pm

Sun Oct 25, 9:04pm

Sun Oct 25, 8:04pm

Sun Oct 25, 7:04pm

Sun Oct 25, 6:04pm

Sun Oct 25, 5:04pm

Sun Oct 25, 4:05pm

Sun Oct 25, 3:04pm

Sun Oct 25, 2:04pm

Sun Oct 25, 1:04pm

Sun Oct 25, 12:04pm

Sun Oct 25, 11:04am

Sun Oct 25, 10:04am

Sun Oct 25, 9:04am

Sun Oct 25, 8:04am

Sun Oct 25, 6:04am

Sun Oct 25, 5:04am

Sun Oct 25, 4:04am

Sun Oct 25, 3:04am

Sun Oct 25, 2:04am

Sun Oct 25, 1:05am

Sun Oct 25, 12:04am

Sat Oct 24, 11:04pm

Sat Oct 24, 10:04pm

Sat Oct 24, 9:04pm

Sat Oct 24, 8:04pm

Sat Oct 24, 7:04pm

Sat Oct 24, 6:04pm

Sat Oct 24, 5:05pm

Sat Oct 24, 4:04pm

Sat Oct 24, 3:04pm

Sat Oct 24, 2:04pm

Sat Oct 24, 1:05pm

Sat Oct 24, 12:04pm

Sat Oct 24, 11:05am

Sat Oct 24, 10:05am

Sat Oct 24, 9:04am

Sat Oct 24, 8:04am

Sat Oct 24, 7:04am

Sat Oct 24, 6:04am

Sat Oct 24, 5:04am

Sat Oct 24, 4:04am

Sat Oct 24, 3:04am

Sat Oct 24, 2:04am

Sat Oct 24, 1:05am

Sat Oct 24, 12:04am

Fri Oct 23, 11:04pm

Fri Oct 23, 10:04pm

Fri Oct 23, 9:04pm

Fri Oct 23, 8:05pm

Fri Oct 23, 7:04pm

Fri Oct 23, 6:04pm

Fri Oct 23, 5:05pm

Fri Oct 23, 4:04pm

Fri Oct 23, 3:04pm

Fri Oct 23, 2:05pm

Fri Oct 23, 1:04pm

Fri Oct 23, 12:04pm

Fri Oct 23, 11:04am

Fri Oct 23, 10:04am

Fri Oct 23, 9:04am

Fri Oct 23, 8:04am

Fri Oct 23, 7:04am

Fri Oct 23, 6:04am

Fri Oct 23, 5:04am

Fri Oct 23, 4:04am

Fri Oct 23, 3:04am

Fri Oct 23, 2:04am

Fri Oct 23, 1:04am

Fri Oct 23, 12:04am

Thu Oct 22, 11:04pm

Thu Oct 22, 10:04pm

Thu Oct 22, 9:05pm

Thu Oct 22, 8:04pm

Thu Oct 22, 7:05pm

Thu Oct 22, 6:04pm

Thu Oct 22, 5:04pm

Thu Oct 22, 4:05pm

Thu Oct 22, 3:04pm

Thu Oct 22, 2:05pm

Thu Oct 22, 1:04pm

Thu Oct 22, 12:04pm

Thu Oct 22, 11:04am

Thu Oct 22, 10:05am

Thu Oct 22, 9:04am

Thu Oct 22, 8:05am

Thu Oct 22, 7:04am

Thu Oct 22, 6:04am

Thu Oct 22, 5:04am

Thu Oct 22, 4:04am

Thu Oct 22, 3:04am

Thu Oct 22, 2:04am

Thu Oct 22, 1:04am

Thu Oct 22, 12:04am

Wed Oct 21, 11:05pm

Wed Oct 21, 10:04pm

Wed Oct 21, 9:04pm

Wed Oct 21, 8:04pm

Wed Oct 21, 7:04pm

Wed Oct 21, 6:04pm

Wed Oct 21, 5:05pm

Wed Oct 21, 4:04pm

Wed Oct 21, 3:04pm

Wed Oct 21, 2:05pm

Wed Oct 21, 1:04pm

Wed Oct 21, 12:04pm

Wed Oct 21, 11:04am

Wed Oct 21, 10:04am

Wed Oct 21, 9:04am

Wed Oct 21, 8:04am

Wed Oct 21, 7:04am

Wed Oct 21, 6:04am

Wed Oct 21, 5:04am

Wed Oct 21, 4:04am

Wed Oct 21, 3:04am

Wed Oct 21, 2:04am

Wed Oct 21, 1:04am

Wed Oct 21, 12:04am

Tue Oct 20, 11:05pm

Tue Oct 20, 10:04pm

Tue Oct 20, 9:04pm

Tue Oct 20, 8:05pm

Tue Oct 20, 7:04pm

Tue Oct 20, 6:04pm

Tue Oct 20, 5:05pm

Tue Oct 20, 4:04pm

Tue Oct 20, 3:05pm

Tue Oct 20, 2:07pm

Tue Oct 20, 1:04pm

Tue Oct 20, 12:04pm

Tue Oct 20, 11:04am

Tue Oct 20, 10:05am

Tue Oct 20, 9:04am

Tue Oct 20, 8:04am

Tue Oct 20, 7:04am

Tue Oct 20, 6:04am

Tue Oct 20, 5:04am

Tue Oct 20, 4:04am

Tue Oct 20, 3:04am

Tue Oct 20, 2:04am

Tue Oct 20, 1:04am

Tue Oct 20, 12:04am

Mon Oct 19, 11:04pm

Mon Oct 19, 10:04pm

Mon Oct 19, 9:04pm

Mon Oct 19, 8:04pm

Mon Oct 19, 7:04pm

Mon Oct 19, 6:04pm

Mon Oct 19, 5:04pm

Mon Oct 19, 4:04pm

Mon Oct 19, 3:04pm

Mon Oct 19, 2:04pm

Mon Oct 19, 1:05pm

Mon Oct 19, 12:04pm

Mon Oct 19, 11:04am

Mon Oct 19, 10:04am

Mon Oct 19, 9:04am

Mon Oct 19, 8:04am

Mon Oct 19, 7:04am

Mon Oct 19, 6:04am

Mon Oct 19, 5:04am

Meta data:

ID: 9d9daa80-00e9-4103-b3aa-57dda10bdbd7
Link: https://api.weather.gov/products/9d9daa80-00e9-4103-b3aa-57dda10bdbd7